Weather History for Ellensburg, WA

Change the Weather History Date:

Wednesday, May 16, 2012

  Actual Average (KYKM) Record (KYKM)
Temperature  
Mean Temperature 64 °F 57 °F  
Max Temperature 77 °F 73 °F 97 °F (2006)
Min Temperature 55 °F 42 °F 27 °F (1974)
Degree Days  
Heating Degree Days 1 8  
Month to date heating degree days 164  
Since 1 July heating degree days 5846  
Cooling Degree Days 0 1  
Month to date cooling degree days 5  
Year to date cooling degree days 6  
Growing Degree Days 14 (Base 50)    
Moisture  
Dew Point 37 °F    
Average Humidity 38    
Maximum Humidity 55    
Minimum Humidity 23    
Precipitation  
Precipitation 0.00 in 0.02 in 0.11 in (2003)
Month to date precipitation 0.28  
Year to date precipitation 3.37  
Snow  
Snow 0.00 in 0.00 in 0.00 in (2002)
Month to date snowfall 0.0  
Year to date snowfall 8.6  
Since 1 July snowfall 21.6  
Snow Depth -    
Sea Level Pressure  
Sea Level Pressure 29.92 in    
Wind  
Wind Speed 20 mph (NW)    
Max Wind Speed 29 mph    
Max Gust Speed 38 mph    
Visibility 10 miles    
Events      
T = Trace of Precipitation, MM = Missing Value Source: NWS Daily Summary

Daily Weather History Graph

Daily Weather History Graph

Search for Another Location

Airport:

Trip Planner

Search our weather history database for the weather conditions in past years. The results will help you decide how hot, cold, wet, or windy it might be!

Date:

Astronomy

May. 16, 2012 Rise Set
Actual Time 5:24 AM PDT 8:33 PM PDT
Civil Twilight 4:48 AM PDT 9:09 PM PDT
Nautical Twilight 4:01 AM PDT 9:56 PM PDT
Astronomical Twilight 3:03 AM PDT 10:55 PM PDT
Moon 3:11 AM PDT (5/16) 4:41 PM PDT (5/16)
Length of Visible Light 16h 21m
Length of Day
15h 08m
Waning Crescent, 15% of the Moon is Illuminated
May 16
Waning Crescent
May 20
New
May 28
First Quarter
Jun 4
Full
Jun 11
Last Quarter

Hourly Weather History & Observations

Time (PDT) Temp. Dew Point Humidity Pressure Visibility Wind Dir Wind Speed Gust Speed Precip Events Conditions
12:53 AM 62.1 °F 36.0 °F 38% 29.91 in 10.0 mi WNW 17.3 mph - N/A   Clear
1:53 AM 61.0 °F 35.1 °F 38% 29.89 in 10.0 mi WNW 16.1 mph 24.2 mph N/A   Clear
2:53 AM 62.1 °F 37.0 °F 39% 29.89 in 10.0 mi WNW 21.9 mph - N/A   Clear
3:53 AM 61.0 °F 39.0 °F 44% 29.91 in 10.0 mi WNW 18.4 mph - N/A   Clear
4:53 AM 61.0 °F 39.0 °F 44% 29.90 in 10.0 mi NW 26.5 mph 34.5 mph N/A   Clear
5:53 AM 59.0 °F 39.0 °F 48% 29.92 in 10.0 mi NW 19.6 mph 27.6 mph N/A   Clear
6:53 AM 61.0 °F 39.9 °F 46% 29.94 in 10.0 mi NW 18.4 mph - N/A   Clear
7:53 AM 64.0 °F 39.0 °F 40% 29.94 in 10.0 mi NW 21.9 mph 31.1 mph N/A   Clear
8:53 AM 64.9 °F 39.0 °F 39% 29.95 in 10.0 mi NW 26.5 mph 36.8 mph N/A   Clear
9:53 AM 66.0 °F 39.0 °F 37% 29.96 in 10.0 mi WNW 27.6 mph 33.4 mph N/A   Clear
10:53 AM 66.9 °F 37.9 °F 34% 29.96 in 10.0 mi NW 28.8 mph 34.5 mph N/A   Clear
11:53 AM 70.0 °F 37.9 °F 31% 29.96 in 10.0 mi NW 21.9 mph 28.8 mph N/A   Clear
12:53 PM 72.0 °F 36.0 °F 27% 29.95 in 10.0 mi WNW 21.9 mph - N/A   Clear
1:53 PM 73.9 °F 35.1 °F 24% 29.92 in 10.0 mi NW 21.9 mph 29.9 mph N/A   Clear
2:53 PM 73.9 °F 34.0 °F 23% 29.91 in 10.0 mi NW 24.2 mph 31.1 mph N/A   Clear
3:53 PM 73.9 °F 35.1 °F 24% 29.90 in 10.0 mi NW 19.6 mph 27.6 mph N/A   Clear
4:53 PM 73.0 °F 36.0 °F 26% 29.89 in 10.0 mi NW 23.0 mph 32.2 mph N/A   Clear
5:53 PM 70.0 °F 37.9 °F 31% 29.90 in 10.0 mi NW 20.7 mph 35.7 mph N/A   Clear
6:53 PM 66.0 °F 37.9 °F 36% 29.91 in 10.0 mi NW 28.8 mph 38.0 mph N/A   Clear
7:53 PM 62.1 °F 37.9 °F 41% 29.92 in 10.0 mi NW 23.0 mph 31.1 mph N/A   Clear
8:53 PM 59.0 °F 37.9 °F 46% 29.94 in 10.0 mi WNW 17.3 mph - N/A   Clear
9:53 PM 57.0 °F 37.0 °F 47% 29.94 in 10.0 mi WNW 15.0 mph - N/A   Clear
10:53 PM 55.9 °F 37.9 °F 51% 29.93 in 10.0 mi WNW 15.0 mph - N/A   Clear
11:53 PM 55.0 °F 39.0 °F 55% 29.92 in 10.0 mi WNW 12.7 mph - N/A   Clear